RH
42 40 40 50 57 53 50 52 45 44 38 31 17 23 96 93 60 94 79 72 87 90 94 80 65 36 72 84 52 31 44 46 53 76 68 63 61 43 58 84 78 40 27 26
45 38 37 45 54 58 58 63 56 49 43 32 32 24 12 70 83 64 87 71 97 92 70 90 89 55 48 86 84 61 35 35 30 38 50 59 67 71 45 61 92 100 93 28
42 53 49 47 47 50 52 62 60 54 53 42 37 31 26 13 27 81 56 61 67 94 97 83 100 75 40 66 77 84 90 61 31 33 34 43 48 61 86 51 52 57 73 65
47 54 56 55 53 48 49 56 57 53 50 46 43 40 36 28 15 32 100 100 75 92 100 100 100 100 53 50 79 62 95 89 60 29 30 30 50 54 62 64 45 33 34 69
44 55 62 60 60 50 48 53 55 53 47 42 46 45 44 34 26 19 20 99 96 67 87 100 100 100 95 76 63 55 65 94 63 66 57 42 35 48 60 62 88 68 42 40
78 66 59 56 59 64 58 62 57 55 46 39 44 40 43 36 32 26 22 16 61 100 87 97 100 96 99 100 81 63 48 58 94 70 68 71 88 70 30 30 36 82 73 54
60 58 58 78 88 79 63 59 50 45 42 37 40 37 32 37 39 33 27 25 17 48 96 90 100 100 100 87 89 86 48 51 44 93 87 78 94 78 61 39 29 30 49 71
65 63 72 69 68 62 63 53 54 54 49 42 43 41 28 34 32 37 37 29 24 22 70 79 76 77 96 100 96 88 75 59 72 88 53 88 78 59 70 78 70 73 38 29
93 71 62 54 60 60 56 59 58 62 63 61 72 66 46 29 41 32 34 39 36 26 25 52 74 70 63 75 98 100 69 70 64 80 73 35 75 60 53 46 70 100 100 100
45 46 60 69 67 63 57 56 56 53 59 62 65 84 56 33 26 35 38 34 37 39 30 26 38 66 60 48 74 94 82 61 60 74 86 74 35 69 61 59 50 68 91 96
54 50 44 49 48 44 44 43 49 47 51 54 58 82 55 42 42 40 37 40 43 46 41 37 30 28 36 42 49 74 97 92 76 80 78 80 38 36 78 71 62 44 54 96
85 72 75 69 66 56 47 49 48 42 40 37 39 82 42 63 56 48 39 38 40 49 49 42 39 36 30 29 31 36 65 67 43 64 55 56 59 42 46 100 91 68 52 55
86 79 82 80 62 55 54 49 50 46 46 48 51 52 35 59 70 59 46 37 40 37 40 49 44 42 40 37 34 30 37 52 48 16 13 15 20 54 38 64 87 84 60 52
84 84 86 85 82 66 66 56 45 43 44 52 55 58 44 59 67 63 49 42 42 44 38 38 40 48 45 34 33 34 30 33 36 32 16 10 29 66 53 43 52 56 76 61
65 68 77 86 95 83 72 69 57 48 50 48 77 79 68 66 72 62 53 48 44 40 35 32 32 32 31 42 34 30 35 26 27 23 17 12 43 83 54 30 32 45 55 68
71 73 77 90 98 100 92 76 70 69 55 52 61 96 80 70 66 68 58 51 45 41 39 34 35 39 39 48 40 34 36 27 24 16 16 29 62 95 69 33 45 45 41 77
88 88 78 93 98 90 99 100 81 70 74 64 54 87 74 79 74 78 83 63 53 47 41 36 32 52 55 47 58 53 34 25 22 13 22 38 67 82 65 82 97 57 99 100
89 90 93 91 95 90 100 100 100 92 77 77 65 60 77 85 89 85 95 86 79 65 50 38 34 44 57 50 66 59 35 28 21 18 59 70 70 66 64 48 67 84 97 98
85 89 84 90 95 96 96 100 100 100 98 74 71 75 63 86 100 84 91 92 87 87 65 47 38 50 72 83 75 56 35 31 21 19 70 59 56 41 42 49 81 81 86 70
81 72 80 89 85 92 100 100 100 98 100 98 92 68 72 80 76 91 83 87 83 78 78 62 42 49 58 80 84 62 34 32 24 13 40 67 44 100 47 67 80 84 57 72
81 74 71 81 90 99 100 100 100 100 100 100 100 99 74 64 80 81 100 88 88 77 78 80 53 45 45 72 90 73 44 31 26 14 57 97 99 100 100 100 79 97 95 97
62 63 60 70 98 100 99 100 94 94 91 93 100 100 100 84 64 75 89 98 94 84 78 79 65 40 39 60 75 58 45 34 27 15 55 63 82 97 100 100 69 78 92 88
50 52 58 78 99 86 99 99 99 97 75 81 87 89 88 99 87 69 69 93 100 100 93 80 65 45 33 45 57 63 48 39 26 18 50 82 100 100 100 100 94 76 78 99
40 44 48 52 68 58 65 55 49 59 48 49 58 74 87 92 92 83 80 69 94 100 89 88 63 52 35 33 43 64 51 42 26 22 78 97 100 100 100 100 100 100 100 87
30 26 26 27 40 43 36 32 32 30 27 28 27 33 51 71 76 85 83 72 72 98 93 75 67 51 45 35 37 58 56 44 30 24 38 57 92 100 99 100 100 100 100 75
15 18 23 32 38 35 33 29 23 20 17 15 14 14 23 35 49 69 80 78 68 82 96 72 63 52 54 39 38 53 59 51 35 24 27 27 57 100 100 100 100 100 87 82
Wind_Speed
10 12 8 7 7 7 7 6 5 6 5 5 12 14 15 14 15 18 18 18 24 18 19 17 13 9 5 6 5 15 21 24 25 30 31 30 27 31 28 30 20 23 19 27
12 14 11 10 9 9 7 8 10 9 8 5 5 13 18 16 15 20 17 15 17 21 22 20 17 13 11 9 7 7 13 22 27 25 26 27 30 30 31 31 31 23 20 24
14 16 15 15 15 15 13 11 14 12 13 12 7 6 14 22 19 19 20 20 18 17 21 23 23 17 16 13 10 9 7 8 16 28 28 30 30 31 33 31 34 30 26 22
17 19 19 20 18 20 17 16 20 17 17 16 12 9 8 11 24 22 22 23 21 21 20 23 24 22 20 17 13 12 9 11 10 16 22 21 33 29 30 32 36 35 31 32
21 24 25 25 23 23 18 20 22 22 22 21 18 14 12 10 9 20 24 23 27 24 24 25 28 26 24 21 18 16 15 14 16 13 12 11 15 27 33 31 32 37 35 36
28 31 32 31 30 29 27 26 27 27 27 25 23 23 19 16 13 11 17 25 26 28 27 28 28 27 28 23 22 21 19 18 19 17 15 11 7 6 12 23 35 34 35 37
33 34 34 34 32 32 31 30 30 30 30 30 27 29 22 23 21 17 15 18 27 30 30 30 31 29 30 31 28 27 26 22 21 20 20 16 12 9 8 6 11 27 36 37
31 30 33 34 33 31 31 28 28 27 28 28 30 31 29 27 28 24 23 19 21 30 34 34 32 32 34 33 30 28 33 28 24 21 24 22 19 16 14 11 8 9 16 24
37 36 38 36 36 34 33 34 33 33 33 31 33 34 32 28 28 31 30 27 25 24 31 38 40 38 34 34 33 33 34 33 27 23 23 25 25 22 20 17 15 13 10 10
41 41 41 40 42 43 42 43 43 42 41 39 40 45 40 35 32 32 34 33 33 30 29 32 38 43 41 39 37 38 35 39 35 27 26 27 29 28 26 23 21 18 17 15
44 44 44 45 46 45 44 45 46 46 47 47 47 53 45 42 36 34 37 37 38 36 35 33 34 38 45 46 43 40 40 42 40 35 29 32 32 32 31 27 26 26 20 13
48 47 48 48 50 52 50 51 51 51 49 46 47 55 49 46 44 41 39 40 41 41 40 40 37 36 37 40 46 50 45 40 36 38 37 35 35 34 36 33 32 30 26 22
51 51 52 52 51 48 46 50 51 52 51 47 49 54 44 45 45 44 42 40 42 43 43 44 42 40 38 40 41 45 50 48 45 39 36 36 35 37 40 40 38 36 32 26
50 52 51 53 55 49 47 46 45 43 42 45 46 51 47 43 41 41 41 39 40 45 44 45 45 45 45 44 44 42 45 50 50 47 41 37 34 35 41 43 40 37 34 31
49 51 52 51 53 52 49 47 44 43 42 41 42 45 48 43 42 42 42 40 40 42 39 38 41 45 44 43 44 42 44 46 50 48 43 37 36 35 39 42 39 36 36 32
52 53 54 50 53 53 51 50 49 45 45 42 43 44 49 45 42 40 42 41 40 39 37 35 34 37 38 38 42 41 42 43 47 47 43 39 37 32 36 37 38 35 33 31
58 60 57 54 53 52 51 54 54 49 48 46 44 47 52 49 47 44 41 40 40 38 36 34 32 33 35 33 38 42 40 41 45 45 42 42 40 36 35 38 35 35 32 32
63 64 65 60 58 50 52 55 54 56 51 49 47 46 52 54 53 50 46 42 40 39 38 34 31 31 32 32 34 38 37 40 43 43 41 40 39 37 35 37 37 38 37 32
68 68 68 66 62 58 56 57 55 58 54 53 49 49 48 54 61 58 52 48 43 42 41 37 32 30 30 33 35 35 35 41 42 44 40 35 36 31 34 36 37 37 33 32
76 71 70 68 66 61 64 62 59 59 57 63 57 53 52 52 56 63 59 54 49 46 43 39 36 33 32 33 35 36 34 39 42 44 39 37 28 35 35 34 37 31 35 30
79 77 71 71 68 66 69 65 64 66 65 62 62 61 58 58 57 58 61 60 55 51 48 43 40 39 33 33 36 36 35 35 42 45 43 40 40 34 31 34 40 30 24 24
82 79 74 72 70 68 69 68 66 66 69 67 66 67 64 63 63 60 60 61 56 53 52 48 45 41 36 36 35 37 34 32 40 47 46 45 37 31 29 38 39 41 36 30
77 76 72 71 70 68 70 70 69 70 70 71 71 71 70 68 66 64 61 61 59 56 55 52 51 44 40 39 37 39 35 33 38 47 49 45 40 42 38 45 43 45 44 41
63 65 62 66 66 66 61 62 60 63 63 66 68 71 72 73 72 68 65 62 61 59 57 54 52 45 42 41 38 38 39 37 39 49 52 50 47 45 42 48 47 38 41 45
58 52 53 50 54 53 50 48 50 54 57 61 62 65 70 75 76 74 70 65 59 59 60 56 51 44 39 41 38 38 41 39 40 51 59 55 49 50 39 50 50 43 46 44
50 48 46 49 51 49 49 46 46 47 51 55 57 60 66 70 72 75 72 68 62 57 59 55 50 44 40 39 40 39 41 41 43 49 49 51 52 40 41 44 48 50 43 43
Wind_Direction
224 236 245 270 277 284 295 314 325 335 296 240 234 231 233 219 220 224 235 235 237 228 219 226 224 195 151 136 126 195 198 199 193 199 207 215 216 214 221 210 212 224 231 226
229 254 257 262 269 281 292 295 295 300 299 283 234 237 232 230 222 218 229 240 225 231 220 219 221 204 181 169 158 155 187 208 207 208 215 220 223 221 222 218 222 218 223 218
243 251 263 266 268 269 275 276 278 291 296 296 298 255 234 230 233 221 225 234 230 231 228 218 222 221 205 191 192 174 181 172 209 220 222 230 227 226 227 225 225 231 223 224
256 256 260 263 268 266 268 265 272 278 280 284 294 298 288 234 228 231 220 230 226 223 219 218 222 223 216 200 202 204 192 179 175 205 221 231 224 224 228 232 230 232 229 224
258 256 258 264 266 264 262 264 266 268 269 275 277 280 276 271 245 227 233 229 233 232 225 220 225 223 219 218 214 210 209 195 181 178 182 197 218 232 237 234 233 236 234 231
258 256 257 261 262 265 264 263 263 263 266 266 268 271 268 269 268 249 230 233 240 233 228 222 224 229 222 225 231 225 217 217 203 194 191 197 216 235 236 242 235 231 233 236
259 260 262 261 261 263 266 265 262 260 262 266 263 265 262 263 261 258 249 233 233 239 235 226 221 224 233 235 237 241 230 221 221 216 216 221 221 225 196 211 221 229 232 231
265 265 267 267 265 263 259 260 259 262 268 271 270 267 265 259 260 256 256 256 242 231 237 237 235 229 229 234 238 237 231 226 228 236 232 225 231 239 238 242 218 202 207 226
264 263 263 264 263 259 256 258 259 262 265 267 271 269 266 259 259 260 252 251 251 246 235 238 238 234 234 234 235 234 229 228 229 231 236 237 231 234 242 246 237 238 242 259
270 270 267 264 263 262 262 263 263 262 264 264 265 268 264 264 263 259 257 253 249 244 242 239 239 238 236 235 234 234 232 231 233 235 240 242 236 235 238 244 241 252 254 255
271 270 268 267 268 269 267 266 265 264 265 264 264 264 265 266 266 266 261 256 251 248 243 242 242 241 242 240 236 238 233 232 239 238 235 238 237 234 238 242 250 252 262 262
268 271 271 267 268 270 267 266 266 266 265 266 267 264 266 265 263 263 262 259 253 247 244 245 244 243 244 243 243 240 237 235 234 237 241 235 238 243 235 238 245 250 252 263
272 272 271 270 269 266 270 266 264 263 263 263 262 263 266 263 262 260 257 255 255 251 247 247 247 245 244 244 243 242 240 237 237 234 236 238 239 241 239 236 239 246 252 261
274 274 273 272 272 268 264 266 264 263 261 256 257 260 261 260 260 257 257 255 251 252 248 248 247 247 248 248 242 240 239 238 236 235 237 236 236 242 242 238 242 246 249 255
278 277 276 273 273 270 265 261 260 260 255 256 252 255 256 251 254 254 254 253 250 251 251 251 250 250 249 246 243 239 240 239 234 233 233 237 232 235 241 240 241 246 249 256
276 276 275 274 269 269 268 262 257 256 256 250 246 245 249 248 244 248 251 251 249 249 251 249 252 251 245 242 243 239 240 238 229 224 228 231 229 233 237 238 240 247 245 249
279 276 274 274 270 264 266 263 260 256 255 252 250 241 243 242 243 242 244 248 249 249 250 249 250 250 247 242 242 241 245 236 226 222 224 227 229 232 234 228 236 233 238 243
276 276 276 271 268 266 258 260 263 262 256 251 250 247 245 242 241 241 243 243 248 251 250 246 245 246 250 244 238 239 243 232 223 218 221 226 230 234 231 229 231 235 233 248
275 273 273 270 266 262 261 259 257 257 259 255 248 247 243 242 242 241 239 242 242 247 250 247 241 241 241 246 244 238 240 229 221 216 217 226 227 240 230 228 231 240 234 252
275 274 271 267 265 261 259 258 258 256 255 256 256 249 241 243 243 243 242 239 242 243 244 245 239 236 234 236 237 234 236 229 222 215 214 214 209 221 235 240 232 234 244 242
274 275 271 265 263 260 258 258 257 256 249 252 252 253 251 243 239 241 240 238 239 243 240 241 240 235 230 231 229 232 233 230 222 212 208 204 207 216 232 236 237 231 235 238
274 272 270 263 259 259 257 257 255 251 250 247 247 247 247 245 240 235 236 237 237 239 239 240 239 236 231 231 226 223 228 230 222 214 210 213 216 201 220 230 245 229 242 247
272 269 266 262 259 257 255 253 252 251 248 248 246 246 242 241 239 236 232 233 235 235 236 240 241 237 232 231 226 224 226 226 221 216 213 205 201 218 230 230 239 239 245 249
267 264 261 258 257 256 255 252 250 250 247 245 241 238 236 235 234 235 233 230 229 234 234 238 242 238 236 233 229 225 226 226 223 214 204 205 212 209 231 227 236 244 244 249
264 260 257 256 256 256 255 253 252 247 242 239 237 234 233 231 230 229 231 229 225 229 234 235 239 236 235 236 233 229 228 230 227 217 216 219 219 225 233 228 236 249 245 246
267 263 259 255 253 252 253 249 250 246 241 237 235 234 230 229 227 225 225 226 221 224 231 233 234 233 230 233 231 231 229 233 232 225 224 225 221 226 230 239 243 243 244 247